SL-8 R/B

Satellite information

Favourite Embed

Satellite Type and Status

ROCKET BODYIN ORBIT

Key statistics

Satellite SL-8 R/B at a glance.

Uptime

17035

Days in orbit

Revolutions

≈ 14.4

Per day

Orbit

LEO

Low Earth Orbit

Inclination

74.0

Latest

Satellite identification and parameters

Extended collection of information and parameters for SL-8 R/B.

Object identification

Identified? True

Debris? False

Object name: SL-8 R/B

International designator: 1978-105B

Object number (NORAD): 11112

Object ID (CCSDS): 11112

Country: COMMONWEALTH OF INDEPENDENT STATES (CIS)

Current information (Y/N): Y

RCS size: LARGE

Orbital parameters

Period: 100.099 minutes

Inclination: 74.0294 deg

SMA: 7141.339 km

Apoapsis: 787.566 km

Periapsis: 738.841 km

RAAN: 152.0746 deg

Eccentricy: 0.0034115

Argument of periapsis: 311.7108 deg

Mean anomaly: 48.1129 deg

Mean motion: 14.38577641 rev/day

Mean motion (dot): 0.00000187 rev/day2

B* drag term: 0.000069428 1/REarth

Two-line elements (TLE)

Creation date: July 6, 2025, 6:05 p.m.

Reference frame: TEME

Reference center: EARTH

Epoch: July 6, 2025, 8:43 a.m. UTC

TLE line 0: 0 SL-8 R/B

TLE line 1: 1 11112U 78105B 25187.36327081 .00000187 00000-0 69428-4 0 9999

TLE line 2: 2 11112 74.0294 152.0746 0034115 311.7108 48.1129 14.38577641442106

Live tracking on map

Real-time ground track for satellite SL-8 R/B.

In-orbit conjunctions

A list of the most updated potential collisions computed for object SL-8 R/B.

Target Orbit TCA Probability of collision Miss distance Type
NOAA 16 DEB SSO 2025-02-21 06:08:51 0.0002115217 758.0 (m) DEBRIS
NOAA 16 DEB SSO 2024-11-12 15:39:34 0.0002077167 78.0 (m) DEBRIS

Associated space launch

Military communications satellite

SL-8 R/B was lifted into orbit during the mission ‘Kosmos-3M | Strela-2M 19’, on board a Kosmos-3M space rocket.

The launch took place on Nov. 16, 1978, 9:45 p.m. from 132/2.

For more information about the launch, click the button.

Launch to space Kosmos-3M | Strela-2M 19
Kosmos-3M | Strela-2M 19

Agency: N/A

Status: Launch Successful

Launch date: Nov. 16, 1978, 9:45 p.m. UTC

Rocket: Kosmos-3M

Launch pad: 132/2

Location: Plesetsk Cosmodrome, Russian Federation

...

Latest news about this satellite

There are no fresh news available about this satellite. Check back as we update our databases every day.


Newsletter sign-up

Weekly statistics, charts and insights to help you stay on top of the space industry.